Theta_e
310 310 310 311 312 316 314 312 312 311 311 312 310 308 308 309 309 312 312 315 319 319 319 317 315 316 317 315 315 314 314 314 326 341 338 338 339 340 338 336 337 335 335 334 336
311 311 311 311 311 315 317 314 313 311 312 312 310 309 309 310 315 315 315 319 320 318 317 315 315 317 313 315 316 315 313 328 337 340 341 340 341 342 342 340 339 335 335 335 338
311 311 311 311 311 312 316 315 313 312 313 311 310 310 311 312 327 320 319 318 322 316 316 316 318 318 317 316 316 318 321 338 342 340 338 336 338 342 342 343 338 337 336 334 334
312 312 312 312 311 312 313 315 314 313 313 312 313 315 315 317 329 325 324 321 318 317 316 319 317 317 316 318 317 319 339 341 341 339 335 336 335 340 340 342 337 335 335 334 334
312 312 312 312 312 312 312 315 314 314 314 314 316 317 320 325 325 330 320 318 317 317 317 319 318 316 318 318 317 335 339 340 340 338 338 338 339 338 336 338 337 335 336 336 345
312 312 312 312 312 312 312 313 316 315 315 315 315 317 326 328 328 324 317 318 317 318 319 319 319 315 317 318 319 323 338 340 341 336 335 336 336 343 336 337 339 338 337 345 347
310 311 311 311 312 312 312 313 314 318 316 315 315 319 327 325 325 319 319 318 317 320 321 321 320 318 318 317 318 337 340 339 341 339 339 340 345 340 337 340 341 340 345 346 346
309 310 310 311 312 312 312 313 315 317 318 316 316 321 326 328 329 322 322 322 322 321 320 319 320 318 319 317 316 320 318 317 337 337 339 340 349 344 343 342 342 347 346 346 344
309 310 310 311 311 312 313 316 318 320 320 319 321 325 328 328 323 323 321 320 319 319 320 321 318 316 314 315 313 314 318 319 320 337 341 338 347 345 344 343 348 347 345 345 345
311 312 312 312 312 312 316 320 320 322 323 323 323 321 322 327 322 323 323 321 319 319 318 319 311 312 310 311 315 317 319 317 317 320 338 338 346 343 342 346 346 345 346 346 346
313 313 313 312 312 313 319 320 314 316 322 320 320 320 323 325 324 323 323 322 321 319 317 316 314 313 312 313 315 317 317 317 318 318 322 340 347 346 346 345 345 345 346 345 344
313 313 313 313 312 317 314 317 319 318 314 317 318 322 323 321 321 321 322 321 321 320 319 316 315 315 314 314 316 316 317 316 322 323 320 338 347 346 344 346 345 345 346 345 342
309 307 310 311 313 316 314 319 317 318 316 318 319 319 319 320 320 321 319 319 320 319 318 317 318 319 318 317 318 318 318 319 322 325 324 323 326 333 337 343 344 344 344 344 342
300 301 302 306 313 312 315 317 318 318 318 323 322 320 320 319 320 322 320 319 319 319 318 317 317 319 319 319 318 319 319 321 324 326 327 324 326 321 322 334 344 343 344 344 341
300 301 300 301 308 311 313 316 318 318 329 329 322 321 320 319 321 321 321 319 319 320 320 319 320 320 321 322 322 320 320 324 322 321 321 321 320 319 325 333 331 335 344 342 339
300 301 301 304 304 308 310 317 318 322 330 328 322 319 318 319 321 321 320 319 319 319 319 319 320 321 321 322 322 322 321 318 318 317 320 319 319 318 318 326 332 335 343 341 338
301 302 301 303 307 308 311 317 320 323 324 325 323 321 318 319 320 321 320 318 317 320 319 319 321 321 323 323 321 318 316 318 320 321 322 319 321 319 322 325 327 341 342 339 337
301 302 304 305 306 307 316 318 323 323 325 324 322 322 320 320 321 321 319 318 317 317 318 319 320 323 322 322 321 320 317 317 321 321 321 321 324 327 328 325 331 341 340 338 335
301 303 305 309 308 311 314 319 319 323 323 321 322 323 322 321 322 321 319 318 318 316 318 319 322 323 324 322 321 321 320 317 319 321 321 321 330 330 328 328 334 340 338 337 333
304 308 311 311 312 316 315 319 320 320 319 319 320 321 320 320 321 321 319 320 321 319 317 319 322 324 326 321 321 319 320 321 318 326 326 324 326 330 330 328 329 337 335 333 331
313 312 311 317 314 313 317 317 319 318 318 319 320 320 320 321 322 323 325 323 323 322 319 319 320 322 326 324 322 322 322 318 316 321 324 326 323 326 328 327 326 326 334 333 330
312 311 315 314 317 315 318 319 319 320 319 319 320 320 320 321 321 322 326 325 324 326 325 320 319 321 324 325 325 323 322 319 321 320 321 320 320 321 327 328 325 325 327 333 329
308 310 310 314 318 317 318 320 320 320 320 320 321 322 320 319 319 322 323 324 322 325 325 326 320 322 321 321 321 326 325 322 321 320 323 326 325 325 326 325 327 327 327 331 329
309 312 310 310 312 317 318 319 320 319 319 320 320 320 322 322 318 321 324 324 323 325 326 325 324 320 323 321 321 328 328 326 323 325 325 324 323 322 323 325 325 325 327 327 327
307 309 311 314 315 314 318 318 320 320 319 318 318 322 322 321 323 324 324 324 324 326 326 320 322 327 327 328 328 327 326 325 324 324 327 326 324 324 321 321 323 322 322 327 326
310 310 312 312 310 318 319 321 323 322 322 322 319 321 320 321 320 321 323 323 325 325 327 324 324 327 327 327 327 327 325 324 323 323 322 324 325 321 321 320 323 323 326 329 331
309 308 312 313 314 315 317 320 320 316 316 319 321 322 323 322 324 324 325 324 325 326 324 326 325 326 327 328 329 329 326 324 324 322 322 324 322 322 322 323 325 324 332 332 331
Wind_Speed
32 32 32 32 29 20 14 12 11 10 11 11 10 10 10 11 9 7 6 7 3 7 10 12 10 11 9 4 4 5 3 4 3 9 2 2 1 3 2 8 3 2 7 12 38
32 33 32 32 32 27 18 12 11 10 10 9 8 8 9 10 9 10 10 9 7 7 8 5 6 8 3 4 2 3 4 3 7 17 7 3 4 1 6 7 6 7 15 22 34
31 32 32 32 32 31 23 14 11 9 9 8 7 7 8 10 3 7 6 15 10 10 9 7 8 2 3 1 4 3 5 5 10 19 18 11 7 8 14 9 5 16 17 15 27
32 33 33 32 31 29 28 17 12 9 8 7 7 8 9 4 1 4 5 10 9 9 7 2 4 2 5 2 5 6 15 7 12 17 18 19 10 11 7 5 10 6 12 13 15
32 32 33 33 32 29 26 21 14 10 8 8 9 11 4 2 8 6 6 8 9 8 5 2 4 1 3 6 7 14 4 7 9 7 9 10 8 2 4 6 0 6 8 5 8
32 33 32 32 31 30 27 21 17 11 10 9 10 11 2 3 5 5 7 8 10 7 3 5 5 8 6 3 0 2 12 11 3 9 5 8 2 2 8 8 8 6 7 8 9
32 33 33 33 32 31 28 21 18 13 9 10 9 6 1 11 5 7 7 9 10 11 3 10 8 2 2 9 3 18 13 6 4 5 5 10 5 4 6 4 4 5 12 11 10
33 33 33 33 33 33 29 22 19 14 9 7 7 2 6 8 8 11 9 10 13 17 17 22 10 1 2 2 8 6 10 8 12 9 11 6 7 7 13 12 8 13 12 12 7
34 35 34 33 33 35 28 26 16 7 6 5 2 2 9 8 6 14 13 10 11 18 13 14 6 2 7 4 5 8 2 2 7 17 12 4 8 14 10 14 16 15 13 12 10
34 35 35 33 33 33 24 18 13 3 3 4 1 3 6 3 6 12 16 17 7 3 6 4 6 4 5 6 2 2 4 5 6 11 13 14 10 19 16 20 17 15 13 13 12
34 36 35 33 32 27 22 10 9 4 2 6 11 7 17 12 6 7 8 4 2 5 3 3 3 5 9 6 6 3 4 4 8 7 8 13 15 23 21 15 14 14 12 11 10
34 35 36 36 32 11 23 5 3 14 10 9 15 15 26 16 6 8 6 3 2 3 2 5 5 11 7 8 5 6 6 7 7 4 6 9 18 20 17 21 22 19 16 15 10
34 35 35 36 24 6 21 7 30 31 3 9 7 7 9 10 8 8 7 5 4 3 5 6 11 1 6 10 5 5 6 4 5 3 5 8 2 5 7 10 17 18 19 19 21
33 33 34 36 4 27 11 26 28 24 4 6 4 6 6 7 6 12 17 7 3 11 5 6 10 9 12 10 7 3 5 4 3 5 3 4 3 6 10 15 18 16 17 19 17
31 30 31 26 18 11 16 27 28 3 4 3 4 9 6 8 2 3 10 3 8 7 2 11 7 7 6 6 6 8 0 1 4 4 4 1 4 8 6 9 12 12 20 20 20
30 28 30 14 19 18 22 28 4 5 5 4 5 5 6 5 4 4 4 4 3 3 2 10 5 6 8 5 3 3 5 8 5 4 2 5 5 7 5 9 17 13 21 21 18
30 29 28 23 6 13 21 7 4 3 6 2 5 5 7 6 5 6 5 6 5 3 4 7 7 5 3 3 6 8 7 4 4 4 5 5 2 8 9 6 12 24 22 20 18
30 31 26 27 23 14 8 5 2 4 6 6 8 3 8 8 6 6 6 5 5 5 1 2 8 2 2 4 8 4 8 6 5 4 5 6 3 5 6 9 8 17 22 18 16
30 23 21 24 6 9 5 3 7 5 2 7 11 2 2 3 3 6 9 9 9 10 8 6 6 4 6 7 10 5 2 5 6 2 3 4 1 4 6 9 12 14 16 18 18
22 13 16 8 10 12 4 6 6 4 6 6 2 2 7 5 5 5 6 8 7 11 9 8 3 2 4 5 5 8 6 3 4 3 3 4 4 5 3 6 9 12 13 11 13
8 4 6 3 19 4 4 7 5 8 5 3 5 7 6 1 2 5 4 5 4 8 10 7 7 7 2 1 5 1 1 5 5 5 5 2 5 6 10 8 10 11 16 18 17
5 3 5 14 2 2 3 5 3 8 5 6 5 6 4 2 2 1 5 2 7 4 3 7 6 6 8 5 6 6 5 5 5 6 3 4 6 5 9 12 10 10 10 16 20
3 4 5 2 4 3 5 4 5 11 13 6 4 5 8 6 2 6 5 5 7 3 1 0 1 1 8 5 5 3 4 5 4 4 6 6 6 5 6 8 10 10 9 14 18
2 3 4 3 1 6 5 6 6 6 9 7 8 8 4 3 4 4 3 3 7 4 3 6 4 6 9 9 5 4 3 4 6 4 4 6 6 7 8 9 8 10 11 13 15
1 4 2 4 3 5 2 4 8 9 5 2 7 5 6 7 3 4 3 4 4 3 1 5 6 5 5 5 3 5 6 6 5 6 6 6 7 9 11 11 14 13 9 9 10
2 2 4 4 5 5 2 3 4 7 5 7 8 9 4 3 7 8 2 1 4 3 3 3 2 1 2 5 8 10 8 7 7 5 5 7 8 10 8 5 6 11 9 13 13
4 6 2 4 4 4 4 3 4 7 9 4 5 6 5 2 1 5 3 1 3 2 1 2 4 3 5 5 7 8 8 10 7 7 7 8 9 6 5 8 6 9 16 16 16
Wind_Direction
19 19 19 18 12 359 348 338 329 325 324 321 318 326 324 317 307 283 251 222 266 290 279 304 296 296 287 261 209 142 57 17 11 88 121 23 4 303 341 104 360 18 108 141 150
15 14 15 14 15 10 2 352 346 337 330 323 334 337 332 324 310 255 240 220 261 275 278 291 299 16 328 268 282 110 81 232 147 129 110 108 92 4 87 24 8 108 149 139 149
11 10 10 10 11 13 9 2 357 349 336 340 353 347 338 327 319 248 217 225 241 254 262 280 301 160 243 145 265 99 147 191 135 128 121 125 148 165 133 141 205 159 169 156 158
7 7 6 6 6 10 11 5 2 355 343 355 358 351 330 330 207 280 259 204 226 246 271 305 34 10 314 258 227 106 150 163 160 131 127 144 134 150 163 151 120 169 172 167 177
3 2 2 1 0 1 4 4 357 350 342 343 351 349 342 312 253 252 198 194 224 253 247 71 344 57 246 279 316 103 144 136 152 111 110 132 145 223 199 126 84 192 183 124 91
359 358 357 356 356 355 357 356 351 337 332 334 343 347 23 290 266 228 184 201 227 234 269 154 229 238 263 284 189 56 133 112 109 122 125 135 69 327 216 148 186 178 129 100 101
356 355 353 353 352 350 348 348 343 328 317 322 338 346 314 241 213 177 186 223 229 225 224 264 252 356 348 329 50 130 107 55 172 157 120 115 9 264 51 100 151 128 122 118 115
353 352 350 351 349 348 343 341 329 318 313 309 319 355 254 298 270 209 206 249 263 264 257 278 307 334 112 296 350 167 124 152 217 211 177 123 209 243 220 150 219 149 141 126 125
351 349 347 348 347 346 343 338 330 306 300 311 354 98 274 316 193 210 222 224 264 266 270 305 22 26 14 50 9 5 218 278 148 207 163 197 160 224 202 162 170 149 140 134 122
348 347 345 344 344 345 349 352 353 41 69 28 276 342 279 284 252 211 239 238 238 261 355 10 46 21 16 64 215 284 9 315 270 190 197 185 176 190 211 172 163 152 153 148 145
344 343 341 340 341 345 355 351 10 357 137 213 253 234 287 289 300 181 222 242 74 69 181 303 65 252 256 218 219 204 232 250 270 250 127 173 158 182 181 160 161 167 160 146 140
339 339 338 336 340 352 354 1 326 312 304 250 246 241 252 268 295 280 222 152 79 250 6 3 256 240 249 283 266 266 265 277 276 38 84 161 175 182 175 181 178 173 166 154 139
334 336 336 334 339 1 339 348 344 356 305 297 222 221 235 159 228 224 141 175 183 261 248 180 244 215 216 260 257 264 211 204 210 355 39 119 26 186 224 197 191 185 173 163 161
333 334 336 337 356 335 320 340 345 349 21 279 210 242 168 189 246 197 190 156 170 223 229 228 261 238 256 257 166 227 214 198 104 112 200 115 249 228 212 203 203 182 173 173 164
330 331 335 343 310 315 327 333 334 41 354 178 195 176 176 168 194 189 171 128 218 239 97 263 291 300 217 202 171 214 178 91 77 117 105 42 101 259 149 206 215 183 178 176 172
328 327 330 332 304 297 333 328 347 43 259 270 158 158 116 196 252 18 135 138 211 215 227 256 251 212 221 230 189 81 72 36 47 93 43 232 124 291 211 203 217 174 178 176 170
324 323 318 302 255 307 327 355 37 155 312 50 213 160 167 197 244 166 167 171 182 20 310 335 296 280 171 111 29 78 59 7 359 12 231 317 84 239 304 224 198 173 176 174 168
323 320 311 287 285 289 341 55 205 258 274 339 346 199 171 184 238 187 152 194 256 131 156 215 320 28 292 206 173 186 145 153 195 206 250 319 296 286 318 304 100 160 162 159 160
326 324 302 290 268 184 84 114 215 217 307 356 338 63 259 239 226 158 187 200 213 173 175 176 251 277 278 216 144 175 124 184 110 79 82 266 197 352 351 28 71 120 144 162 168
327 319 283 304 166 138 86 214 231 239 0 20 306 326 351 342 37 37 204 203 225 193 171 224 274 248 341 45 49 137 158 61 13 168 220 280 284 234 232 142 123 140 155 170 171
340 343 326 278 146 68 190 221 251 264 288 262 290 284 241 118 92 348 289 335 338 262 152 171 154 261 56 60 189 49 107 68 119 137 169 201 265 216 204 190 172 174 178 177 178
349 323 180 347 123 189 207 198 239 275 301 286 298 271 257 165 184 194 251 274 343 315 248 198 157 215 193 189 154 161 231 139 131 260 217 160 263 276 196 200 191 201 185 184 181
342 265 315 211 197 243 279 263 267 279 278 272 267 281 269 225 251 202 210 253 313 27 323 351 343 114 323 346 355 165 187 164 114 77 203 155 253 237 240 208 214 197 200 186 184
349 321 306 39 183 157 225 250 252 264 283 262 266 249 238 243 195 252 269 296 355 197 210 81 135 165 207 211 171 173 221 158 130 121 216 205 232 279 258 236 215 221 206 190 186
183 249 257 312 330 343 322 282 285 294 252 13 337 332 263 204 235 238 258 317 349 346 253 123 195 196 212 236 263 227 212 233 196 208 175 250 216 238 231 217 214 210 198 176 125
271 13 342 292 294 287 221 259 249 281 229 295 216 276 276 240 230 242 227 178 204 318 75 4 275 189 261 257 256 264 254 222 233 245 242 238 256 247 274 265 198 210 132 136 138
326 338 122 271 317 5 251 249 305 339 278 227 314 293 308 270 181 177 176 184 253 159 224 150 133 87 255 260 294 281 219 236 250 227 201 249 240 209 224 170 215 139 151 151 148